Weather History for Pensacola, FL

Change the Weather History Date:

Sunday, May 20, 2012

  Actual Average Record
Temperature  
Mean Temperature 80 °F 76 °F  
Max Temperature 90 °F 84 °F 95 °F (1962)
Min Temperature 69 °F 67 °F 48 °F (1894)
Cooling Degree Days 15 11  
Month to date cooling degree days 233 165  
Year to date cooling degree days 610 313  
Growing Degree Days 29 (Base 50)    
Moisture  
Dew Point 57 °F    
Average Humidity 49    
Maximum Humidity 73    
Minimum Humidity 24    
Precipitation  
Precipitation 0.00 in 0.13 in 2.76 in (1946)
Month to date precipitation 3.95 2.62  
Year to date precipitation 18.00 22.44  
Sea Level Pressure  
Sea Level Pressure 30.04 in    
Wind  
Wind Speed 5 mph (NNE)    
Max Wind Speed 12 mph    
Max Gust Speed 16 mph    
Visibility 10 miles    
Events      
T = Trace of Precipitation, MM = Missing Value Source: NWS Daily Summary

Daily Weather History Graph

Daily Weather History Graph

Search for Another Location

Airport:

Trip Planner

Search our weather history database for the weather conditions in past years. The results will help you decide how hot, cold, wet, or windy it might be!

Date:

Astronomy

May. 20, 2012 Rise Set
Actual Time 5:51 AM CDT 7:39 PM CDT
Civil Twilight 5:24 AM CDT 8:06 PM CDT
Nautical Twilight 4:52 AM CDT 8:38 PM CDT
Astronomical Twilight 4:18 AM CDT 9:12 PM CDT
Moon 5:30 AM CDT (5/20) 7:37 PM CDT (5/20)
Length of Visible Light 14h 41m
Length of Day
13h 48m
Waning Crescent, 0% of the Moon is Illuminated
May 20
Waning Crescent
May 20
New
May 28
First Quarter
Jun 4
Full
Jun 11
Last Quarter

Hourly Weather History & Observations

Time (CDT) Temp. Heat Index Dew Point Humidity Pressure Visibility Wind Dir Wind Speed Gust Speed Precip Events Conditions
12:53 AM 72.0 °F - 60.1 °F 66% 30.03 in 10.0 mi Calm Calm - N/A   Clear
1:53 AM 71.1 °F - 60.1 °F 68% 30.02 in 10.0 mi NE 3.5 mph - N/A   Clear
2:53 AM 72.0 °F - 60.1 °F 66% 30.01 in 10.0 mi NE 5.8 mph - N/A   Clear
3:53 AM 70.0 °F - 60.1 °F 71% 30.01 in 10.0 mi NE 4.6 mph - N/A   Clear
4:53 AM 69.8 °F - 57.2 °F 64% 30.01 in 10.0 mi NE 4.6 mph - N/A   Clear
5:53 AM 69.1 °F - 55.9 °F 63% 30.04 in 10.0 mi ENE 4.6 mph - N/A   Clear
6:53 AM 70.0 °F - 57.0 °F 63% 30.06 in 10.0 mi NE 5.8 mph - N/A   Clear
7:53 AM 73.0 °F - 57.0 °F 57% 30.08 in 10.0 mi NNE 6.9 mph - N/A   Clear
8:53 AM 77.0 °F - 57.9 °F 52% 30.08 in 10.0 mi NNE 4.6 mph - N/A   Clear
9:53 AM 80.1 °F 80.6 °F 57.9 °F 47% 30.09 in 10.0 mi Calm Calm - N/A   Clear
10:53 AM 82.9 °F 81.9 °F 54.0 °F 37% 30.09 in 10.0 mi East 8.1 mph - N/A   Clear
11:53 AM 84.9 °F - 46.9 °F 27% 30.08 in 10.0 mi East 4.6 mph - N/A   Clear
12:53 PM 87.1 °F - 48.0 °F 26% 30.07 in 10.0 mi Variable 6.9 mph - N/A   Clear
1:53 PM 88.0 °F - 46.9 °F 24% 30.05 in 10.0 mi NW 8.1 mph - N/A   Clear
2:53 PM 89.1 °F - 52.0 °F 28% 30.03 in 10.0 mi Variable 5.8 mph - N/A   Clear
3:53 PM 86.0 °F 84.9 °F 57.0 °F 37% 30.01 in 10.0 mi SSE 9.2 mph - N/A   Clear
4:53 PM 84.9 °F 84.2 °F 57.9 °F 40% 30.00 in 10.0 mi South 5.8 mph - N/A   Clear
5:53 PM 82.9 °F 82.8 °F 59.0 °F 44% 30.01 in 10.0 mi SSW 9.2 mph - N/A   Clear
6:53 PM 81.0 °F 81.3 °F 59.0 °F 47% 30.01 in 10.0 mi SSW 6.9 mph - N/A   Clear
7:53 PM 79.0 °F - 60.1 °F 52% 30.01 in 10.0 mi SW 5.8 mph - N/A   Clear
8:53 PM 78.1 °F - 61.0 °F 56% 30.03 in 10.0 mi Calm Calm - N/A   Clear
9:53 PM 75.9 °F - 62.1 °F 62% 30.04 in 10.0 mi WNW 4.6 mph - N/A   Clear
10:53 PM 75.9 °F - 62.1 °F 62% 30.05 in 10.0 mi WNW 5.8 mph - N/A   Clear
11:53 PM 73.9 °F - 63.0 °F 68% 30.04 in 10.0 mi NW 4.6 mph - N/A   Clear